METAR Formatted Surface Weather Observation
Issued by NWS

Current Version | Previous Version | Text Only | Print | Product List | Glossary On
Versions: 1 2 3 4 5 6 7 8 9 10 11 12 13 14 15 16 17 18 19 20 21 22 23 24 25 26 27 28 29 30 31 32 33 34 35 36 37 38 39 40 41 42 43 44 45 46 47 48 49 50
033
SAUS46 KLOX 182058
MTRNXP
METAR KNXP 182056Z VRB04KT 10SM FEW120 SCT200 13/M02 A3010 RMK AO2
PRESFR SLP179 T01281022 58038



USA.gov is the U.S. government's official web portal to all federal, state and local government web resources and services.